This demonstration page uses our WeatherBlox Daily Observations layout. Learn more.

Left ArrowRight Arrow

39.01783, -85.05884

Hourly Observations for September 14, 2021

Temp ( °F °C ) Dew Point ( °F °C ) Humidity (%) Winds ( mph kmh ) Pressure ( in mb ) Visibility ( mi km ) Precip ( " mm )
12:52 am 00:52 Mostly Clear 71 21.7 65 18.3 81 81 S 8 13 30.03 1017 10 16 0.00 0.00
1:52 am 01:52 Mostly Clear 70 21.1 65 18.3 84 84 S 6 9 30.01 1016 10 16 0.00 0.00
2:52 am 02:52 Mostly Clear 70 21.1 65 18.3 84 84 S 7 11 30.00 1016 10 16 0.00 0.00
3:52 am 03:52 Mostly Clear 70 21.1 64 17.8 82 82 S 7 11 29.98 1015 10 16 0.00 0.00
4:52 am 04:52 Mostly Clear 69 20.6 64 17.8 84 84 SSW 8 13 29.98 1015 10 16 0.00 0.00
5:52 am 05:52 Mostly Clear 69 20.6 64 17.8 84 84 SSW 9 15 29.98 1015 10 16 0.00 0.00
6:52 am 06:52 Mostly Clear 69 20.6 65 18.3 87 87 SSW 8 13 29.99 1016 10 16 0.00 0.00
7:52 am 07:52 Mostly Sunny 69 20.6 65 18.3 87 87 SSW 8 13 30.03 1017 9 14 0.00 0.00
8:52 am 08:52 Mostly Sunny 72 22.2 66 18.9 82 82 S 9 15 30.03 1017 10 16 0.00 0.00
9:52 am 09:52 Mostly Sunny 76 24.4 67 19.4 74 74 SSW 8 13 30.02 1017 10 16 0.00 0.00
10:52 am 10:52 Mostly Sunny 80 26.7 69 20.6 69 69 SW 9 15 30.01 1016 10 16 0.00 0.00
11:52 am 11:52 Partly Cloudy 82 27.8 67 19.4 60 60 WSW 15 24 29.99 1016 10 16 0.00 0.00
12:52 pm 12:52 Mostly Cloudy 84 28.9 67 19.4 57 57 SW 10 17 29.97 1015 10 16 0.00 0.00
1:52 pm 13:52 Mostly Cloudy 85 29.4 67 19.4 55 55 SSW 10 17 29.95 1014 10 16 0.00 0.00
2:52 pm 14:52 Partly Cloudy 84 28.9 67 19.4 57 57 SW 14 22 29.93 1014 10 16 0.00 0.00
3:52 pm 15:52 Partly Cloudy 87 30.6 66 18.9 50 50 SW 10 17 29.91 1013 10 16 0.00 0.00
4:52 pm 16:52 Mostly Sunny 85 29.4 66 18.9 53 53 SSW 14 22 29.89 1012 10 16 0.00 0.00
5:52 pm 17:52 Mostly Sunny 85 29.4 66 18.9 53 53 SSW 13 20 29.88 1012 10 16 0.00 0.00
6:52 pm 18:52 Partly Cloudy 83 28.3 65 18.3 55 55 SSW 12 19 29.88 1012 10 16 0.00 0.00
7:52 pm 19:52 Partly Cloudy 80 26.7 66 18.9 62 62 SSW 9 15 29.88 1012 10 16 0.00 0.00
8:52 pm 20:52 Mostly Clear 78 25.6 66 18.9 67 67 S 9 15 29.86 1011 10 16 0.00 0.00
9:52 pm 21:52 Mostly Clear 77 25 67 19.4 71 71 SSW 8 13 29.88 1012 10 16 0.00 0.00
10:52 pm 22:52 Clear 76 24.4 67 19.4 74 74 SSW 7 11 29.89 1012 10 16 0.00 0.00
11:52 pm 23:52 Mostly Cloudy 76 24.4 67 19.4 74 74 SSW 7 11 29.89 1012 10 16 0.00 0.00

Powered by AerisWeather